Regional Weather Roundup
Issued by NWS

Home | Current Version | Previous Version | Text Only | Print | Product List | Glossary On
Versions: 1 2 3 4 5 6 7 8 9 10 11 12 13 14 15 16 17 18 19 20 21 22 23 24 25 26 27 28 29 30 31 32 33 34 35 36 37 38 39 40 41 42 43 44 45 46 47 48 49 50
000
ASUS45 KCYS 310210
RWRWY

WYOMING REGIONAL WEATHER ROUNDUP
NATIONAL WEATHER SERVICE CHEYENNE WY
800 PM MDT SUN AUG 30 2015

NOTE:  "FAIR" INDICATES FEW OR NO CLOUDS BELOW 12,000 FEET
WITH NO SIGNIFICANT WEATHER AND/OR OBSTRUCTIONS TO VISIBILITY.

WYZ001-310300-
YELLOWSTONE NATIONAL PARK

CITY           SKY/WX    TMP DP  RH WIND       PRES   REMARKS
LK YELLOWSTONE   N/A     58  29  33 VRB5      30.15S
W YELLOWSTONE  NOT AVBL

$$
WYZ002>013-054>058-071-098>099-310300-
NORTHERN WYOMING

CITY           SKY/WX    TMP DP  RH WIND       PRES   REMARKS
JACKSON        FAIR      68  37  32 SW7       30.05S
CODY           FAIR      79  34  19 SW15G21   29.86R
GREYBULL       FAIR      83  44  25 W8        29.74S
WORLAND        FAIR      79  46  31 S21       29.79F
SHERIDAN       FAIR      74  53  48 E6        29.78F
BUFFALO        LGT RAIN  76  46  34 W7        29.89R
GILLETTE       FAIR      70  55  59 S8        29.81F
HULETT         FAIR      72  52  49 W8        29.83S
NEWCASTLE      LGT RAIN  73  50  43 E10       29.86R

$$
WYZ014>020-022>026-101>103-310300-
CENTRAL WYOMING

CITY           SKY/WX    TMP DP  RH WIND       PRES   REMARKS
BIG PINEY      FAIR      64  38  38 W6        30.10S
PINEDALE       FAIR      68  32  26 SW9       30.10R
DUBOIS         FAIR      64  36  34 NW12      30.06S
LANDER         FAIR      72  41  32 S22G32    29.94R
RIVERTON       FAIR      76  45  33 S29G37    29.93F
CASPER         FAIR      73  42  32 S14       29.94F
DOUGLAS        FAIR      78  46  32 W10       29.93S

$$
WYZ021-027>030-104>119-310300-
SOUTHERN WYOMING

CITY           SKY/WX    TMP DP  RH WIND       PRES   REMARKS
EVANSTON       FAIR      70  39  32 W10       30.11S
KEMMERER       FAIR      68  34  28 SW10G17   30.13R
FORT BRIDGER   CLEAR     66  50  55 SW8       30.12F THUNDER
ROCK SPRINGS   FAIR      67  46  47 SW9       30.10F
DIXON          LGT RAIN  69  45  42 CALM      30.16F
RAWLINS        FAIR      69  43  38 SW16G29   30.13F
SARATOGA       FAIR      68  41  37 SW13G18   30.18R
LARAMIE        MOCLDY    71  41  33 NW9       30.15R
CHEYENNE       FAIR      75  45  34 N12       30.05S
TORRINGTON     FAIR      83  46  27 W20G31    29.88R
PINE BLUFFS    FAIR      79  41  25 NW7       29.98R

$$


USA.gov is the U.S. government's official web portal to all federal, state and local government web resources and services.